,,PA_Meas_PMT16A,,PR_Meas_QMR101_102,,RH_Meas_QMH101,,SR_Meas_QMS101,,TA_Meas_QMH101,,GenWind,,GenWind,
time,status,PA,status,PR,status,RH,status,SR,status,TA,status,DirAvg,status,SpdAvg,
2012-08-01, 00:00:04,VALID,919.127,VALID,0,VALID,95.2165,VALID,0,VALID,20.1739,VALID,14,VALID,0,
2012-08-01, 00:01:04,VALID,919.107,VALID,0,VALID,95.1021,VALID,0,VALID,20.1544,VALID,14,VALID,0,
2012-08-01, 00:02:04,VALID,919.048,VALID,0,VALID,94.9268,VALID,0,VALID,20.1349,VALID,14,VALID,0,
2012-08-01, 00:03:04,VALID,919.008,VALID,0,VALID,94.8734,VALID,0,VALID,20.1154,VALID,14,VALID,0,
2012-08-01, 00:04:04,VALID,918.998,VALID,0,VALID,94.8429,VALID,0,VALID,20.1364,VALID,14,VALID,0,
2012-08-01, 00:05:04,VALID,918.991,VALID,0,VALID,94.8048,VALID,0,VALID,20.1364,VALID,14,VALID,0,
2012-08-01, 00:06:04,VALID,919.023,VALID,0,VALID,94.82,VALID,0,VALID,20.0764,VALID,14,VALID,0,
2012-08-01, 00:07:04,VALID,919.027,VALID,0,VALID,94.7896,VALID,0,VALID,20.1154,VALID,14,VALID,0,
2012-08-01, 00:08:04,VALID,919.039,VALID,0,VALID,94.8048,VALID,0,VALID,20.1349,VALID,14,VALID,0,
2012-08-01, 00:09:04,VALID,919.021,VALID,0,VALID,94.7896,VALID,0,VALID,20.1349,VALID,14,VALID,0,
2012-08-01, 00:10:04,VALID,919.037,VALID,0,VALID,94.7362,VALID,0,VALID,20.1544,VALID,14,VALID,0,
2012-08-01, 00:11:04,VALID,919.008,VALID,0,VALID,94.6295,VALID,0,VALID,20.1139,VALID,14,VALID,0,
2012-08-01, 00:12:04,VALID,919.003,VALID,0,VALID,94.5913,VALID,0,VALID,20.0944,VALID,14,VALID,0,
2012-08-01, 00:13:04,VALID,918.99,VALID,0,VALID,94.5304,VALID,0,VALID,20.1139,VALID,14,VALID,0,
2012-08-01, 00:14:04,VALID,918.967,VALID,0,VALID,94.5151,VALID,0,VALID,20.0358,VALID,14,VALID,0,
2012-08-01, 00:15:04,VALID,918.969,VALID,0,VALID,94.5227,VALID,0,VALID,20.0163,VALID,5,VALID,0,
2012-08-01, 00:16:04,VALID,918.95,VALID,0,VALID,94.5609,VALID,0,VALID,20.0163,VALID,5,VALID,0,
2012-08-01, 00:17:04,VALID,918.943,VALID,0,VALID,94.599,VALID,0,VALID,20.0358,VALID,5,VALID,0,
2012-08-01, 00:18:04,VALID,918.947,VALID,0,VALID,94.7133,VALID,0.107441,VALID,19.9773,VALID,5,VALID,0,
2012-08-01, 00:19:04,VALID,918.948,VALID,0,VALID,94.8277,VALID,0,VALID,19.9578,VALID,5,VALID,0,
2012-08-01, 00:20:04,VALID,918.939,VALID,0,VALID,94.8887,VALID,0,VALID,19.9773,VALID,5,VALID,0,
2012-08-01, 00:21:04,VALID,918.937,VALID,0,VALID,94.9496,VALID,0,VALID,19.9773,VALID,5,VALID,0,
2012-08-01, 00:22:04,VALID,918.907,VALID,0,VALID,94.9496,VALID,0,VALID,19.9773,VALID,5,VALID,0,
2012-08-01, 00:23:04,VALID,918.867,VALID,0,VALID,94.8887,VALID,0,VALID,19.9773,VALID,5,VALID,0,
2012-08-01, 00:24:04,VALID,918.841,VALID,0,VALID,94.7286,VALID,0,VALID,19.9578,VALID,5,VALID,0,
2012-08-01, 00:25:04,VALID,918.853,VALID,0,VALID,94.6828,VALID,0,VALID,19.9383,VALID,5,VALID,0,
2012-08-01, 00:26:04,VALID,918.835,VALID,0,VALID,94.6142,VALID,0,VALID,19.9383,VALID,5,VALID,0,
2012-08-01, 00:27:04,VALID,918.832,VALID,0,VALID,94.599,VALID,0,VALID,19.9188,VALID,5,VALID,0,
2012-08-01, 00:28:04,VALID,918.801,VALID,0,VALID,94.6752,VALID,0,VALID,19.9188,VALID,5,VALID,0,
2012-08-01, 00:29:04,VALID,918.803,VALID,0,VALID,94.7819,VALID,0,VALID,19.9383,VALID,5,VALID,0,
2012-08-01, 00:30:04,VALID,918.772,VALID,0,VALID,94.7286,VALID,0.107441,VALID,19.9188,VALID,5,VALID,0,
2012-08-01, 00:31:04,VALID,918.731,VALID,0,VALID,94.6295,VALID,0,VALID,19.8798,VALID,5,VALID,0,
2012-08-01, 00:32:04,VALID,918.736,VALID,0,VALID,94.7972,VALID,0,VALID,19.8993,VALID,5,VALID,0,
2012-08-01, 00:33:04,VALID,918.72,VALID,0,VALID,94.9268,VALID,0,VALID,19.8798,VALID,5,VALID,0,
2012-08-01, 00:34:04,VALID,918.674,VALID,0,VALID,95.003,VALID,0.107441,VALID,19.8603,VALID,5,VALID,0,
2012-08-01, 00:35:04,VALID,918.691,VALID,0,VALID,95.003,VALID,0.107441,VALID,19.8408,VALID,5,VALID,0,
2012-08-01, 00:36:04,VALID,918.713,VALID,0,VALID,94.6981,VALID,0.107441,VALID,19.7433,VALID,5,VALID,0,
2012-08-01, 00:37:04,VALID,918.707,VALID,0,VALID,94.5609,VALID,0.107441,VALID,19.6833,VALID,5,VALID,0,
2012-08-01, 00:38:04,VALID,918.714,VALID,0,VALID,94.3703,VALID,0,VALID,19.6068,VALID,5,VALID,0,
2012-08-01, 00:39:04,VALID,918.729,VALID,0,VALID,94.6447,VALID,0,VALID,19.6068,VALID,5,VALID,0,
2012-08-01, 00:40:04,VALID,918.696,VALID,0,VALID,94.8048,VALID,0,VALID,19.6473,VALID,5,VALID,0,
2012-08-01, 00:41:04,VALID,918.699,VALID,0,VALID,94.7591,VALID,0,VALID,19.5678,VALID,5,VALID,0,
2012-08-01, 00:42:04,VALID,918.675,VALID,0,VALID,94.8048,VALID,0,VALID,19.5288,VALID,4,VALID,0,
2012-08-01, 00:43:04,VALID,918.652,VALID,0,VALID,94.9039,VALID,0,VALID,19.4493,VALID,5,VALID,0,
2012-08-01, 00:44:04,VALID,918.666,VALID,0,VALID,95.2012,VALID,0,VALID,19.4913,VALID,5,VALID,0,
2012-08-01, 00:45:04,VALID,918.641,VALID,0,VALID,95.4147,VALID,0,VALID,19.4703,VALID,5,VALID,0,
2012-08-01, 00:46:04,VALID,918.633,VALID,0,VALID,95.5595,VALID,0.107441,VALID,19.4898,VALID,5,VALID,0,
2012-08-01, 00:47:04,VALID,918.622,VALID,0,VALID,95.7577,VALID,0,VALID,19.5288,VALID,5,VALID,0,
2012-08-01, 00:48:04,VALID,918.574,VALID,0,VALID,95.8187,VALID,0.107441,VALID,19.5483,VALID,5,VALID,0,
2012-08-01, 00:49:04,VALID,918.547,VALID,0,VALID,95.895,VALID,0.107441,VALID,19.5483,VALID,5,VALID,0,
2012-08-01, 00:50:04,VALID,918.517,VALID,0,VALID,95.9864,VALID,0,VALID,19.5888,VALID,5,VALID,0,
2012-08-01, 00:51:04,VALID,918.519,VALID,0,VALID,96.0245,VALID,0,VALID,19.5888,VALID,5,VALID,0,
2012-08-01, 00:52:04,VALID,918.522,VALID,0,VALID,96.116,VALID,0,VALID,19.5678,VALID,5,VALID,0,
2012-08-01, 00:53:04,VALID,918.565,VALID,0,VALID,96.1618,VALID,0,VALID,19.5678,VALID,5,VALID,0,
2012-08-01, 00:54:04,VALID,918.55,VALID,0,VALID,96.1313,VALID,0,VALID,19.5483,VALID,5,VALID,0,
2012-08-01, 00:55:04,VALID,918.534,VALID,0,VALID,96.1923,VALID,0,VALID,19.5498,VALID,5,VALID,0,
2012-08-01, 00:56:04,VALID,918.509,VALID,0,VALID,96.2151,VALID,0.107441,VALID,19.5288,VALID,5,VALID,0,
2012-08-01, 00:57:04,VALID,918.498,VALID,0,VALID,96.1008,VALID,0.107441,VALID,19.4898,VALID,5,VALID,0,
2012-08-01, 00:58:04,VALID,918.458,VALID,0,VALID,96.1008,VALID,0,VALID,19.4508,VALID,5,VALID,0,
2012-08-01, 00:59:04,VALID,918.434,VALID,0,VALID,95.8111,VALID,0,VALID,19.3547,VALID,5,VALID,0,
2012-08-01, 01:00:04,VALID,918.405,VALID,0,VALID,95.7958,VALID,0.107441,VALID,19.2558,VALID,5,VALID,0,
2012-08-01, 01:01:04,VALID,918.416,VALID,0,VALID,95.5595,VALID,0,VALID,19.1402,VALID,5,VALID,0,
2012-08-01, 01:02:04,VALID,918.386,VALID,0,VALID,95.7425,VALID,0,VALID,19.0413,VALID,5,VALID,0,
2012-08-01, 01:03:04,VALID,918.395,VALID,0,VALID,96.0093,VALID,0,VALID,19.0608,VALID,5,VALID,0,
2012-08-01, 01:04:04,VALID,918.422,VALID,0,VALID,96.1008,VALID,0.107441,VALID,19.0998,VALID,5,VALID,0,
2012-08-01, 01:05:04,VALID,918.404,VALID,0,VALID,96.0855,VALID,0,VALID,19.0817,VALID,5,VALID,0,
2012-08-01, 01:06:04,VALID,918.429,VALID,0,VALID,96.0474,VALID,0,VALID,19.0232,VALID,5,VALID,0,
2012-08-01, 01:07:04,VALID,918.417,VALID,0,VALID,96.0474,VALID,0,VALID,18.9828,VALID,5,VALID,0,
2012-08-01, 01:08:04,VALID,918.363,VALID,0,VALID,96.0169,VALID,0,VALID,18.9647,VALID,5,VALID,0,
2012-08-01, 01:09:04,VALID,918.328,VALID,0,VALID,96.0855,VALID,0,VALID,18.9243,VALID,5,VALID,0,
2012-08-01, 01:10:04,VALID,918.285,VALID,0,VALID,96.2151,VALID,0,VALID,18.9633,VALID,5,VALID,0,
2012-08-01, 01:11:04,VALID,918.281,VALID,0,VALID,96.2304,VALID,0,VALID,18.9647,VALID,5,VALID,0,
2012-08-01, 01:12:04,VALID,918.248,VALID,0,VALID,96.2228,VALID,0,VALID,18.9452,VALID,5,VALID,0,
2012-08-01, 01:13:04,VALID,918.219,VALID,0,VALID,96.299,VALID,0,VALID,18.9257,VALID,5,VALID,0,
2012-08-01, 01:14:04,VALID,918.19,VALID,0,VALID,96.3142,VALID,0,VALID,18.9452,VALID,5,VALID,0,
2012-08-01, 01:15:04,VALID,918.187,VALID,0,VALID,96.2456,VALID,0.107441,VALID,18.9438,VALID,5,VALID,0,
2012-08-01, 01:16:04,VALID,918.144,VALID,0,VALID,96.238,VALID,0.107441,VALID,18.8853,VALID,5,VALID,0,
2012-08-01, 01:17:04,VALID,918.133,VALID,0,VALID,96.2914,VALID,0,VALID,18.8867,VALID,5,VALID,0,
2012-08-01, 01:18:04,VALID,918.098,VALID,0,VALID,96.2761,VALID,0,VALID,18.8672,VALID,5,VALID,0,
2012-08-01, 01:19:04,VALID,918.111,VALID,0,VALID,96.299,VALID,0,VALID,18.8867,VALID,5,VALID,0,
2012-08-01, 01:20:04,VALID,918.089,VALID,0,VALID,96.3066,VALID,0,VALID,18.9062,VALID,5,VALID,0,
2012-08-01, 01:21:04,VALID,918.085,VALID,0,VALID,96.2914,VALID,0,VALID,18.8853,VALID,5,VALID,0,
2012-08-01, 01:22:04,VALID,918.072,VALID,0,VALID,96.1465,VALID,0,VALID,18.9062,VALID,5,VALID,0,
2012-08-01, 01:23:04,VALID,918.028,VALID,0,VALID,96.0169,VALID,0.107441,VALID,18.8268,VALID,66,VALID,0,
2012-08-01, 01:24:04,VALID,918.022,VALID,0,VALID,96.0093,VALID,0,VALID,18.8087,VALID,66,VALID,0,
2012-08-01, 01:25:04,VALID,917.997,VALID,0,VALID,96.0474,VALID,0,VALID,18.7892,VALID,66,VALID,0,
2012-08-01, 01:26:04,VALID,918,VALID,0,VALID,96.055,VALID,0,VALID,18.7878,VALID,66,VALID,0,
2012-08-01, 01:27:04,VALID,917.989,VALID,0,VALID,96.0474,VALID,0.107441,VALID,18.7488,VALID,66,VALID,0,
2012-08-01, 01:28:04,VALID,917.974,VALID,0,VALID,95.9941,VALID,0,VALID,18.7113,VALID,66,VALID,0,
2012-08-01, 01:29:04,VALID,917.977,VALID,0,VALID,95.9941,VALID,0.107441,VALID,18.6513,VALID,66,VALID,0,
2012-08-01, 01:30:04,VALID,917.968,VALID,0,VALID,96.0093,VALID,0.107441,VALID,18.6333,VALID,66,VALID,0,
2012-08-01, 01:31:04,VALID,918.011,VALID,0,VALID,96.1084,VALID,0,VALID,18.6138,VALID,66,VALID,0,
2012-08-01, 01:32:04,VALID,917.967,VALID,0,VALID,96.1084,VALID,0,VALID,18.5748,VALID,66,VALID,0,
2012-08-01, 01:33:04,VALID,917.958,VALID,0,VALID,96.1618,VALID,0,VALID,18.5358,VALID,66,VALID,0,
2012-08-01, 01:34:04,VALID,917.915,VALID,0,VALID,96.3295,VALID,0,VALID,18.5553,VALID,66,VALID,0,
2012-08-01, 01:35:04,VALID,917.864,VALID,0,VALID,96.4591,VALID,0,VALID,18.5748,VALID,66,VALID,0,
2012-08-01, 01:36:04,VALID,917.807,VALID,0,VALID,96.4819,VALID,0,VALID,18.5553,VALID,66,VALID,0,
2012-08-01, 01:37:04,VALID,917.799,VALID,0,VALID,96.5506,VALID,0.107441,VALID,18.5358,VALID,122,VALID,0,
2012-08-01, 01:38:04,VALID,917.798,VALID,0,VALID,96.6497,VALID,0,VALID,18.5553,VALID,122,VALID,0,
2012-08-01, 01:39:04,VALID,917.766,VALID,0,VALID,96.6802,VALID,0,VALID,18.5163,VALID,122,VALID,0,
2012-08-01, 01:40:04,VALID,917.777,VALID,0,VALID,96.7564,VALID,0,VALID,18.5358,VALID,122,VALID,0,
2012-08-01, 01:41:04,VALID,917.764,VALID,0,VALID,96.8021,VALID,0,VALID,18.5748,VALID,122,VALID,0,
2012-08-01, 01:42:04,VALID,917.777,VALID,0,VALID,96.7793,VALID,0,VALID,18.5358,VALID,122,VALID,0,
2012-08-01, 01:43:04,VALID,917.751,VALID,0,VALID,96.8479,VALID,0,VALID,18.5358,VALID,122,VALID,0,
2012-08-01, 01:44:04,VALID,917.735,VALID,0,VALID,96.8707,VALID,0,VALID,18.5553,VALID,122,VALID,0,
2012-08-01, 01:45:04,VALID,917.713,VALID,0,VALID,96.9241,VALID,0,VALID,18.5748,VALID,122,VALID,0,
2012-08-01, 01:46:04,VALID,917.671,VALID,0,VALID,96.9546,VALID,0,VALID,18.5748,VALID,122,VALID,0,
2012-08-01, 01:47:04,VALID,917.655,VALID,0,VALID,96.947,VALID,0,VALID,18.5553,VALID,122,VALID,0,
2012-08-01, 01:48:04,VALID,917.665,VALID,0,VALID,96.9622,VALID,0,VALID,18.5748,VALID,122,VALID,0,
2012-08-01, 01:49:04,VALID,917.645,VALID,0,VALID,96.9698,VALID,0,VALID,18.5553,VALID,122,VALID,0,
2012-08-01, 01:50:04,VALID,917.599,VALID,0,VALID,96.9927,VALID,0,VALID,18.5553,VALID,122,VALID,0,
2012-08-01, 01:51:04,VALID,917.625,VALID,0,VALID,96.9851,VALID,0,VALID,18.5358,VALID,122,VALID,0,
2012-08-01, 01:52:04,VALID,917.67,VALID,0,VALID,96.9775,VALID,0,VALID,18.5163,VALID,122,VALID,0,
2012-08-01, 01:53:04,VALID,917.687,VALID,0,VALID,96.9775,VALID,0,VALID,18.4773,VALID,122,VALID,0,
2012-08-01, 01:54:04,VALID,917.695,VALID,0,VALID,96.9927,VALID,0,VALID,18.4787,VALID,122,VALID,0,
2012-08-01, 01:55:04,VALID,917.712,VALID,0,VALID,96.9927,VALID,0,VALID,18.4188,VALID,122,VALID,0,
2012-08-01, 01:56:04,VALID,917.681,VALID,0,VALID,97.0156,VALID,0,VALID,18.4188,VALID,122,VALID,0,
2012-08-01, 01:57:04,VALID,917.652,VALID,0,VALID,97.0385,VALID,0,VALID,18.3993,VALID,122,VALID,0,
2012-08-01, 01:58:04,VALID,917.63,VALID,0,VALID,96.9089,VALID,0,VALID,18.3018,VALID,122,VALID,0,
2012-08-01, 01:59:04,VALID,917.647,VALID,0,VALID,97.008,VALID,0,VALID,18.2433,VALID,122,VALID,0,
2012-08-01, 02:00:04,VALID,917.616,VALID,0,VALID,97.0842,VALID,0,VALID,18.2837,VALID,122,VALID,0,
2012-08-01, 02:01:04,VALID,917.628,VALID,0,VALID,97.0461,VALID,0,VALID,18.2044,VALID,122,VALID,0,
2012-08-01, 02:02:04,VALID,917.59,VALID,0,VALID,97.1757,VALID,0,VALID,18.2642,VALID,122,VALID,0,
2012-08-01, 02:03:04,VALID,917.597,VALID,0,VALID,97.2214,VALID,0,VALID,18.3018,VALID,122,VALID,0,
2012-08-01, 02:04:04,VALID,917.603,VALID,0,VALID,97.2062,VALID,0,VALID,18.2823,VALID,123,VALID,0,
2012-08-01, 02:05:04,VALID,917.58,VALID,0,VALID,97.229,VALID,0,VALID,18.3408,VALID,122,VALID,0,
2012-08-01, 02:06:04,VALID,917.597,VALID,0,VALID,97.2214,VALID,0,VALID,18.3408,VALID,122,VALID,0,
2012-08-01, 02:07:04,VALID,917.606,VALID,0,VALID,97.2367,VALID,0,VALID,18.4007,VALID,122,VALID,0,
2012-08-01, 02:08:04,VALID,917.568,VALID,0,VALID,97.2519,VALID,0,VALID,18.4007,VALID,122,VALID,0,
2012-08-01, 02:09:04,VALID,917.533,VALID,0,VALID,97.2367,VALID,0,VALID,18.3422,VALID,122,VALID,0,
2012-08-01, 02:10:04,VALID,917.524,VALID,0,VALID,97.2214,VALID,0,VALID,18.3032,VALID,114,VALID,0,
2012-08-01, 02:11:04,VALID,917.482,VALID,0,VALID,97.2138,VALID,0,VALID,18.2823,VALID,117,VALID,0,
2012-08-01, 02:12:04,VALID,917.484,VALID,0,VALID,97.2214,VALID,0,VALID,18.3227,VALID,127,VALID,0,
2012-08-01, 02:13:04,VALID,917.468,VALID,0,VALID,97.2519,VALID,0,VALID,18.3603,VALID,127,VALID,0,
2012-08-01, 02:14:04,VALID,917.473,VALID,0,VALID,97.29,VALID,0,VALID,18.4578,VALID,127,VALID,0,
2012-08-01, 02:15:04,VALID,917.484,VALID,0,VALID,97.3129,VALID,0,VALID,18.5177,VALID,127,VALID,0,
2012-08-01, 02:16:04,VALID,917.479,VALID,0,VALID,97.3434,VALID,0,VALID,18.5762,VALID,180,VALID,0,
2012-08-01, 02:17:04,VALID,917.43,VALID,0,VALID,97.3434,VALID,0,VALID,18.5943,VALID,165,VALID,0,
2012-08-01, 02:18:04,VALID,917.419,VALID,0,VALID,97.3586,VALID,0,VALID,18.6528,VALID,118,VALID,0,
2012-08-01, 02:19:04,VALID,917.374,VALID,0,VALID,97.351,VALID,0,VALID,18.6737,VALID,130,VALID,0,
2012-08-01, 02:20:04,VALID,917.348,VALID,0,VALID,97.3586,VALID,0,VALID,18.6723,VALID,133,VALID,0,
2012-08-01, 02:21:04,VALID,917.344,VALID,0,VALID,97.3586,VALID,0,VALID,18.7308,VALID,138,VALID,0,
2012-08-01, 02:22:04,VALID,917.347,VALID,0,VALID,97.3434,VALID,0,VALID,18.7517,VALID,137,VALID,0,
2012-08-01, 02:23:04,VALID,917.322,VALID,0,VALID,97.351,VALID,0,VALID,18.7712,VALID,151,VALID,0,
2012-08-01, 02:24:04,VALID,917.312,VALID,0,VALID,97.3586,VALID,0,VALID,18.7697,VALID,148,VALID,0,
2012-08-01, 02:25:04,VALID,917.318,VALID,0,VALID,97.3434,VALID,0,VALID,18.7892,VALID,131,VALID,0,
2012-08-01, 02:26:04,VALID,917.292,VALID,0,VALID,97.351,VALID,0,VALID,18.7697,VALID,138,VALID,0,
2012-08-01, 02:27:04,VALID,917.29,VALID,0,VALID,97.351,VALID,0,VALID,18.7892,VALID,138,VALID,0,
2012-08-01, 02:28:04,VALID,917.27,VALID,0,VALID,97.3586,VALID,0,VALID,18.7697,VALID,151,VALID,0,
2012-08-01, 02:29:04,VALID,917.299,VALID,0,VALID,97.3586,VALID,0,VALID,18.7697,VALID,151,VALID,0,
2012-08-01, 02:30:04,VALID,917.317,VALID,0,VALID,97.3434,VALID,0,VALID,18.7488,VALID,151,VALID,0,
2012-08-01, 02:31:04,VALID,917.293,VALID,0,VALID,97.351,VALID,0,VALID,18.7503,VALID,151,VALID,0,
2012-08-01, 02:32:04,VALID,917.299,VALID,0,VALID,97.3434,VALID,0,VALID,18.7488,VALID,151,VALID,0,
2012-08-01, 02:33:04,VALID,917.259,VALID,0,VALID,97.3739,VALID,0,VALID,18.7712,VALID,151,VALID,0,
2012-08-01, 02:34:04,VALID,917.243,VALID,0,VALID,97.3586,VALID,0,VALID,18.7503,VALID,151,VALID,0,
2012-08-01, 02:35:04,VALID,917.216,VALID,0,VALID,97.3663,VALID,0,VALID,18.7517,VALID,150,VALID,0,
2012-08-01, 02:36:04,VALID,917.221,VALID,0,VALID,97.3815,VALID,0,VALID,18.7322,VALID,150,VALID,0,
2012-08-01, 02:37:04,VALID,917.185,VALID,0,VALID,97.351,VALID,0,VALID,18.7113,VALID,150,VALID,0,
2012-08-01, 02:38:04,VALID,917.23,VALID,0,VALID,97.3663,VALID,0,VALID,18.6918,VALID,151,VALID,0,
2012-08-01, 02:39:04,VALID,917.176,VALID,0,VALID,97.3586,VALID,0,VALID,18.6918,VALID,150,VALID,0,
2012-08-01, 02:40:04,VALID,917.18,VALID,0,VALID,97.3815,VALID,0,VALID,18.6723,VALID,151,VALID,0,
2012-08-01, 02:41:04,VALID,917.146,VALID,0,VALID,97.3891,VALID,0,VALID,18.6737,VALID,150,VALID,0,
2012-08-01, 02:42:04,VALID,917.159,VALID,0,VALID,97.3891,VALID,0,VALID,18.6542,VALID,153,VALID,0,
2012-08-01, 02:43:04,VALID,917.153,VALID,0,VALID,97.4044,VALID,0,VALID,18.696,VALID,154,VALID,0,
2012-08-01, 02:44:04,VALID,917.154,VALID,0,VALID,97.3739,VALID,0,VALID,18.6333,VALID,149,VALID,0,
2012-08-01, 02:45:04,VALID,917.174,VALID,0,VALID,97.3815,VALID,0,VALID,18.6152,VALID,146,VALID,0,
2012-08-01, 02:46:04,VALID,917.181,VALID,0,VALID,97.4044,VALID,0,VALID,18.5957,VALID,162,VALID,0,
2012-08-01, 02:47:04,VALID,917.224,VALID,0,VALID,97.3968,VALID,0,VALID,18.5943,VALID,162,VALID,0,
2012-08-01, 02:48:04,VALID,917.246,VALID,0,VALID,97.4196,VALID,0,VALID,18.5957,VALID,162,VALID,0,
2012-08-01, 02:49:04,VALID,917.252,VALID,0,VALID,97.4273,VALID,0,VALID,18.5748,VALID,162,VALID,0,
2012-08-01, 02:50:04,VALID,917.248,VALID,0,VALID,97.4196,VALID,0,VALID,18.5748,VALID,162,VALID,0,
2012-08-01, 02:51:04,VALID,917.259,VALID,0,VALID,97.4425,VALID,0,VALID,18.5748,VALID,162,VALID,0,
2012-08-01, 02:52:04,VALID,917.314,VALID,0,VALID,97.4044,VALID,0,VALID,18.5553,VALID,156,VALID,0,
2012-08-01, 02:53:04,VALID,917.309,VALID,0,VALID,97.4273,VALID,0,VALID,18.5762,VALID,161,VALID,0,
2012-08-01, 02:54:04,VALID,917.353,VALID,0,VALID,97.4425,VALID,0,VALID,18.5358,VALID,161,VALID,0,
2012-08-01, 02:55:04,VALID,917.397,VALID,0,VALID,97.4577,VALID,0,VALID,18.5567,VALID,161,VALID,0,
2012-08-01, 02:56:04,VALID,917.369,VALID,0,VALID,97.4425,VALID,0,VALID,18.5762,VALID,161,VALID,0,
2012-08-01, 02:57:04,VALID,917.365,VALID,0,VALID,97.4654,VALID,0,VALID,18.5553,VALID,157,VALID,0,
2012-08-01, 02:58:04,VALID,917.348,VALID,0,VALID,97.4806,VALID,0,VALID,18.5567,VALID,157,VALID,0,
2012-08-01, 02:59:04,VALID,917.341,VALID,0,VALID,97.4577,VALID,0,VALID,18.5358,VALID,159,VALID,0,
2012-08-01, 03:00:04,VALID,917.367,VALID,0,VALID,97.4577,VALID,0,VALID,18.5358,VALID,159,VALID,0,
2012-08-01, 03:01:04,VALID,917.342,VALID,0,VALID,97.4654,VALID,0,VALID,18.5372,VALID,160,VALID,0,
2012-08-01, 03:02:04,VALID,917.384,VALID,0,VALID,97.4654,VALID,0,VALID,18.5163,VALID,160,VALID,0,
2012-08-01, 03:03:04,VALID,917.352,VALID,0,VALID,97.473,VALID,0,VALID,18.4968,VALID,160,VALID,0,
2012-08-01, 03:04:04,VALID,917.368,VALID,0,VALID,97.4959,VALID,0,VALID,18.5163,VALID,160,VALID,0,
2012-08-01, 03:05:04,VALID,917.356,VALID,0,VALID,97.4654,VALID,0,VALID,18.5372,VALID,160,VALID,0,
2012-08-01, 03:06:04,VALID,917.407,VALID,0,VALID,97.4806,VALID,0,VALID,18.4968,VALID,160,VALID,0,
2012-08-01, 03:07:04,VALID,917.456,VALID,0,VALID,97.473,VALID,0,VALID,18.5177,VALID,160,VALID,0,
2012-08-01, 03:08:04,VALID,917.485,VALID,0,VALID,97.473,VALID,0,VALID,18.4982,VALID,160,VALID,0,
2012-08-01, 03:09:04,VALID,917.466,VALID,0,VALID,97.5035,VALID,0,VALID,18.4982,VALID,160,VALID,0,
2012-08-01, 03:10:04,VALID,917.494,VALID,0,VALID,97.4959,VALID,0,VALID,18.4968,VALID,160,VALID,0,
2012-08-01, 03:11:04,VALID,917.493,VALID,0,VALID,97.4959,VALID,0.107441,VALID,18.4968,VALID,160,VALID,0,
2012-08-01, 03:12:04,VALID,917.471,VALID,0,VALID,97.4882,VALID,0,VALID,18.4773,VALID,160,VALID,0,
2012-08-01, 03:13:04,VALID,917.472,VALID,0,VALID,97.4882,VALID,0.107441,VALID,18.4968,VALID,159,VALID,0,
2012-08-01, 03:14:04,VALID,917.445,VALID,0,VALID,97.5035,VALID,0.107441,VALID,18.4759,VALID,160,VALID,0,
2012-08-01, 03:15:04,VALID,917.428,VALID,0,VALID,97.5111,VALID,0.107441,VALID,18.4968,VALID,160,VALID,0,
2012-08-01, 03:16:04,VALID,917.4,VALID,0,VALID,97.5111,VALID,0,VALID,18.4773,VALID,159,VALID,0,
2012-08-01, 03:17:04,VALID,917.426,VALID,0,VALID,97.5111,VALID,0,VALID,18.4174,VALID,160,VALID,0,
2012-08-01, 03:18:04,VALID,917.382,VALID,0,VALID,97.5035,VALID,0.107441,VALID,18.4383,VALID,160,VALID,0,
2012-08-01, 03:19:04,VALID,917.38,VALID,0,VALID,97.5035,VALID,0.107441,VALID,18.3993,VALID,160,VALID,0,
2012-08-01, 03:20:04,VALID,917.382,VALID,0,VALID,97.4959,VALID,0,VALID,18.3784,VALID,160,VALID,0,
2012-08-01, 03:21:04,VALID,917.388,VALID,0,VALID,97.5035,VALID,0,VALID,18.3589,VALID,160,VALID,0,
2012-08-01, 03:22:04,VALID,917.402,VALID,0,VALID,97.4959,VALID,0.107441,VALID,18.3589,VALID,160,VALID,0,
2012-08-01, 03:23:04,VALID,917.404,VALID,0,VALID,97.5111,VALID,0.107441,VALID,18.3798,VALID,160,VALID,0,
2012-08-01, 03:24:04,VALID,917.372,VALID,0,VALID,97.5264,VALID,0,VALID,18.3993,VALID,160,VALID,0,
2012-08-01, 03:25:04,VALID,917.397,VALID,0,VALID,97.5111,VALID,0.107441,VALID,18.3784,VALID,160,VALID,0,
2012-08-01, 03:26:04,VALID,917.386,VALID,0,VALID,97.5416,VALID,0,VALID,18.3617,VALID,159,VALID,0,
2012-08-01, 03:27:04,VALID,917.392,VALID,0,VALID,97.5264,VALID,0,VALID,18.3032,VALID,160,VALID,0,
2012-08-01, 03:28:04,VALID,917.41,VALID,0,VALID,97.5187,VALID,0,VALID,18.2837,VALID,160,VALID,0,
2012-08-01, 03:29:04,VALID,917.399,VALID,0,VALID,97.5111,VALID,0,VALID,18.2433,VALID,160,VALID,0,
2012-08-01, 03:30:04,VALID,917.373,VALID,0,VALID,97.5187,VALID,0,VALID,18.2447,VALID,160,VALID,0,
2012-08-01, 03:31:04,VALID,917.394,VALID,0,VALID,97.5264,VALID,0,VALID,18.2044,VALID,121,VALID,0,
2012-08-01, 03:32:04,VALID,917.372,VALID,0,VALID,97.534,VALID,0,VALID,18.2057,VALID,117,VALID,0,
2012-08-01, 03:33:04,VALID,917.365,VALID,0,VALID,97.5187,VALID,0,VALID,18.1849,VALID,117,VALID,0,
2012-08-01, 03:34:04,VALID,917.385,VALID,0,VALID,97.5187,VALID,0,VALID,18.1862,VALID,117,VALID,0,
2012-08-01, 03:35:04,VALID,917.37,VALID,0,VALID,97.5416,VALID,0,VALID,18.1849,VALID,122,VALID,0,
2012-08-01, 03:36:04,VALID,917.362,VALID,0,VALID,97.5492,VALID,0,VALID,18.1849,VALID,131,VALID,0,
2012-08-01, 03:37:04,VALID,917.379,VALID,0,VALID,97.5645,VALID,0,VALID,18.2044,VALID,145,VALID,0,
2012-08-01, 03:38:04,VALID,917.397,VALID,0,VALID,97.5645,VALID,0,VALID,18.2252,VALID,144,VALID,0,
2012-08-01, 03:39:04,VALID,917.384,VALID,0,VALID,97.5645,VALID,0,VALID,18.2252,VALID,142,VALID,0,
2012-08-01, 03:40:04,VALID,917.391,VALID,0,VALID,97.5797,VALID,0,VALID,18.2642,VALID,140,VALID,0,
2012-08-01, 03:41:04,VALID,917.387,VALID,0,VALID,97.5873,VALID,0,VALID,18.2642,VALID,141,VALID,0,
2012-08-01, 03:42:04,VALID,917.357,VALID,0,VALID,97.595,VALID,0,VALID,18.2433,VALID,117,VALID,0,
2012-08-01, 03:43:04,VALID,917.346,VALID,0,VALID,97.5797,VALID,0,VALID,18.2044,VALID,119,VALID,0,
2012-08-01, 03:44:04,VALID,917.364,VALID,0,VALID,97.5873,VALID,0,VALID,18.2044,VALID,125,VALID,0,
2012-08-01, 03:45:04,VALID,917.351,VALID,0,VALID,97.5797,VALID,0,VALID,18.2057,VALID,114,VALID,0,
2012-08-01, 03:46:04,VALID,917.364,VALID,0,VALID,97.595,VALID,0,VALID,18.1667,VALID,133,VALID,0,
2012-08-01, 03:47:04,VALID,917.345,VALID,0,VALID,97.5797,VALID,0,VALID,18.1667,VALID,132,VALID,0,
2012-08-01, 03:48:04,VALID,917.327,VALID,0,VALID,97.5873,VALID,0,VALID,18.1264,VALID,129,VALID,0,
2012-08-01, 03:49:04,VALID,917.321,VALID,0,VALID,97.5797,VALID,0,VALID,18.1459,VALID,101,VALID,0,
2012-08-01, 03:50:04,VALID,917.292,VALID,0,VALID,97.5797,VALID,0,VALID,18.1278,VALID,100,VALID,0,
2012-08-01, 03:51:04,VALID,917.231,VALID,0,VALID,97.595,VALID,0,VALID,18.0484,VALID,90,VALID,0,
2012-08-01, 03:52:04,VALID,917.269,VALID,0,VALID,97.6026,VALID,0,VALID,18.0498,VALID,96,VALID,0,
2012-08-01, 03:53:04,VALID,917.263,VALID,0,VALID,97.5873,VALID,0,VALID,18.0289,VALID,96,VALID,0,
2012-08-01, 03:54:04,VALID,917.286,VALID,0,VALID,97.6102,VALID,0,VALID,18.0303,VALID,96,VALID,0,
2012-08-01, 03:55:04,VALID,917.292,VALID,0,VALID,97.5873,VALID,0,VALID,18.0289,VALID,96,VALID,0,
2012-08-01, 03:56:04,VALID,917.29,VALID,0,VALID,97.6102,VALID,0,VALID,18.0094,VALID,96,VALID,0,
2012-08-01, 03:57:04,VALID,917.302,VALID,0,VALID,97.6178,VALID,0,VALID,18.0498,VALID,96,VALID,0,
2012-08-01, 03:58:04,VALID,917.265,VALID,0,VALID,97.6026,VALID,0,VALID,18.0289,VALID,96,VALID,0,
2012-08-01, 03:59:04,VALID,917.263,VALID,0,VALID,97.6102,VALID,0,VALID,18.0303,VALID,96,VALID,0,